NOAA NWS Hourly Roundups by Site

Regional Weather Roundup for Norman, OK

To Select Another Site Choose from List

Select Site:  

000
ASUS44 KOUN 301510
RWROK
OKCRWROK ALL

WEATHER ROUNDUP FOR OKLAHOMA
NATIONAL WEATHER SERVICE NORMAN OK
ISSUED BY NATIONAL WEATHER SERVICE TULSA OK
1000 AM CDT FRI SEP 30 2022

NOTE: "FAIR" INDICATES FEW OR NO CLOUDS BELOW 12,000 FEET WITH NO
SIGNIFICANT WEATHER AND/OR OBSTRUCTIONS TO VISIBILITY.

CITY           SKY/WX   TEMP DEWPT RH  WIND    PRES    REMARKS

OKZ001>007-009>012-014-015-017-301600-
NORTHWEST OKLAHOMA AND THE PANHANDLE

CITY           SKY/WX    TMP DP  RH WIND       PRES   REMARKS
GAGE           SUNNY     69  46  43 S18G26    30.10R
ENID VANCE AFB PTSUNNY   67  43  41 S16       30.11F
GUYMON         MOSUNNY   76  43  30 SW22G32   30.05F
$$

OKZ016-021>023-033>039-044-045-301600-
SOUTHWEST OKLAHOMA

CITY           SKY/WX    TMP DP  RH WIND       PRES   REMARKS
ALTUS AFB      SUNNY     67  45  45 S20       30.10F
CLINTON        SUNNY     65  44  46 S21       30.13S
FREDERICK      SUNNY     67  45  45 SE14      30.10F
HOBART         SUNNY     68  44  42 S18       30.13F
LAWTON         SUNNY     66  44  45 SE12      30.14S
$$

OKZ018>020-024>031-301600-
CENTRAL OKLAHOMA

CITY           SKY/WX    TMP DP  RH WIND       PRES   REMARKS
OKLAHOMA CITY  MOSUNNY   63  42  46 S15       30.16S
OKC/WILEY POST SUNNY     65  42  43 S17       30.15S
OKC/TINKER AFB SUNNY     64  41  43 S14       30.13S
STILLWATER     SUNNY     67  41  38 S10       30.17S
GUTHRIE        SUNNY     66  41  40 S14       30.16S
$$

OKZ008-013-054>072-301600-
NORTHEAST OKLAHOMA

CITY           SKY/WX    TMP DP  RH WIND       PRES   REMARKS
TULSA          MOSUNNY   66  41  40 S8        30.18S
TULSA/JONES    SUNNY     65  41  41 SE6       30.18S
PONCA CITY     SUNNY     66  40  38 S12G18    30.15F
MUSKOGEE       SUNNY     65  41  41 SE10      30.21S
BARTLESVILLE   SUNNY     63  44  50 S9        30.20S
$$

OKZ032-040>043-046>053-073>077-301600-
SOUTHEAST OKLAHOMA

CITY           SKY/WX    TMP DP  RH WIND       PRES   REMARKS
ARDMORE/DWNTWN SUNNY     66  43  42 SE9       30.16S
MCALESTER      MOSUNNY   65  41  41 VRB5      30.18S
$$


 

View Past Reports for Norman, OK.

Products Courtesy of NOAA-NWS
NWS Information Parsing Script by Ken True at Saratoga Weather - Script by SE Lincoln Weather.